Content
SEND FEEDBACK

Daily
Averages
Monthly
Summary
United States of America

PLATTE, SOUTH DAKOTA


Home > North America > United States > South Dakota
Elevation: 1699 feet     Latitude: 43 30N     Longitude: 099 04W

WEATHER
 
SELECT A DAY
Number of Records: 187,424;   Date Range: 1/1/95 - 11/26/14
 
SHARE

PRINT THIS DATA

[ ← Previous Day ]
WEATHER ALMANAC - NOVEMBER 11, 2013
[ Next Day → ]
[ °C ]   °F
Weather ElementAverageHighLow
Temperature20.5 °F28.9 °F (1:52 am)12 °F (10:52 pm)
Dewpoint11 °F23 °F (1:52 am)5 °F (5:52 pm)
Humidity67.4 %85 % (8:52 am)46 % (2:52 pm)
Barometer30.64 in30.87 in (11:52 pm)30.28 in (1:52 am)
Wind Speed10.9 mph23 mph (3:52 am)
Wind Gust29.9 mph (3:52 am)
Weather ElementAverage
Wind DirectionSSE (157 °)

Weather ElementTotal
Precipitation0.05 in
Heating Degree Days44.6 (Base 65)
Averaged from 23 records on November 11, 2013
WEATHER CONDITIONS BREAKOUT
WIND DIRECTION BREAKOUT
WEATHER BY HOUR - NOVEMBER 11, 2013
[ °C ]   °F
Local TimeTemperatureDewpointHumidityBarometerVisibilityWind DirectionWind SpeedGust SpeedPrecipitationEventsConditions
1:52 AM28.9 °F23.0 °F78 %30.28 inNNE (20°)15.0 mph
2:52 AM26.1 °F19.0 °F75 %30.33 inNNE (30°)19.6 mph26.5 mph
3:52 AM25.0 °F15.1 °F66 %30.38 inNNE (30°)23.0 mph29.9 mph
4:52 AM23.0 °F12.0 °F63 %30.43 inNNE (30°)19.6 mph26.5 mph
5:52 AM21.9 °F12.9 °F68 %30.47 inNNE (30°)20.7 mph24.2 mph
6:52 AM19.9 °F15.1 °F81 %30.50 inNE (40°)12.7 mph
7:52 AM19.9 °F15.1 °F81 %30.55 inNNE (20°)11.5 mph0.02 in
8:52 AM19.9 °F16.0 °F85 %30.58 inNNE (30°)11.5 mph0.02 in
9:52 AM21.0 °F15.1 °F78 %30.62 inNorth (10°)13.8 mph0.01 in
10:52 AM23.0 °F12.9 °F65 %30.65 inNorth (350°)10.4 mph
11:52 AM23.0 °F12.0 °F63 %30.67 inNorth (360°)11.5 mph17.3 mph
12:52 PM25.0 °F12.9 °F60 %30.68 inNorth (360°)9.2 mph
1:52 PM24.1 °F10.9 °F57 %30.69 inNorth (360°)10.4 mph
2:52 PM25.0 °F7.0 °F46 %30.70 inNorth (10°)11.5 mph
3:52 PM24.1 °F8.1 °F51 %30.71 inNorth (360°)11.5 mph
4:52 PM21.9 °F7.0 °F53 %30.74 inNorth (350°)9.2 mph
5:52 PM17.1 °F5.0 °F59 %30.78 inNNE (30°)5.8 mph
6:52 PM16.0 °F5.0 °F62 %30.80 inNNE (20°)6.9 mph
7:52 PM16.0 °F5.0 °F62 %30.82 inCalm
8:52 PM12.9 °F6.1 °F74 %30.85 inWNW (300°)4.6 mph
9:52 PM14.0 °F7.0 °F74 %30.86 inNNW (330°)3.5 mph
10:52 PM12.0 °F5.0 °F73 %30.86 inWNW (290°)4.6 mph
11:52 PM12.0 °F6.1 °F77 %30.87 inWSW (250°)3.5 mph
Hourly data recorded from K9V9, located miles away from Platte, South Dakota







STORIES FROM OUR PARTNERS